Regional Weather Roundup
Issued by NWS

Home | Current Version | Previous Version | Text Only | Print | Product List | Glossary Off
Versions: 1 2 3 4 5 6 7 8 9 10 11 12 13 14 15 16 17 18 19 20 21 22 23 24 25 26 27 28 29 30 31 32 33 34 35 36 37 38 39 40 41 42 43 44 45 46 47 48 49 50

889
ASUS44 KLIX 232205
RWRLA
LOUISIANA WEATHER ROUNDUP
NATIONAL WEATHER SERVICE NEW ORLEANS LA
500 PM CDT THU OCT 23 2014

NOTE: "FAIR" INDICATES FEW OR NO CLOUDS BELOW 12,000 FEET WITH NO
      SIGNIFICANT WEATHER AND/OR OBSTRUCTIONS TO VISIBILITY.
      SKY/WX - SKY CONDITION AND SIGNIFICANT WEATHER.
      TMP - AIR TEMPERATURE.    DP   - DEWPOINT TEMPERATURE.
      RH  - RELATIVE HUMIDITY.  PRES - PRESSURE.
      HX  - HEAT INDEX.         WCI  - WIND CHILL INDEX.

*  THESE STATIONS ARE NOT NWS OR FAA STATIONS AND ARE NOT UNDER
   NWS QUALITY CONTROL.

LAZ040-048-061>063-065-066-069-232300-
SOUTHEAST LOUISIANA

CITY           SKY/WX    TMP DP  RH WIND       PRES   REMARKS
N.O. AUDUBON     N/A     73  50  43 MISG        N/A
N.O. INTL ARPT PTSUNNY   72  44  36 NE5       30.03F
N.O. LAKEFRONT MOSUNNY   72  50  45 NW5       30.04S
N.O. DOWNTOWN* FAIR      73  45  35 CALM      30.04S
SLIDELL        MOSUNNY   73  47  39 CALM      30.03S
BATON ROUGE    CLOUDY    70  50  49 CALM      30.05R
BOOTHVILLE     SUNNY     72  58  61 N8        30.03S
BELLE CHASSE   MOSUNNY   71  47  42 NE3       30.03S
BOGALUSA*      FAIR      73  42  32 N6        30.05S
NEW ROADS*     FAIR      68  54  61 NW7       30.07R
GONZALES*      FAIR      72  50  46 MISG      30.04S
HAMMOND*       CLOUDY    73  41  31 CALM      30.05S
HOUMA*         SUNNY     72  48  43 N7        30.03S
PORT FOURCHON* CLEAR     72  54  53 NE9       30.06R

$$

LAZ041-044-053-054-232300-
SOUTHWEST LOUISIANA

CITY           SKY/WX    TMP DP  RH WIND       PRES   REMARKS
LAKE CHARLES   MOSUNNY   74  52  46 N7        30.06S
LAFAYETTE      CLOUDY    72  50  45 N12       30.05R
PATTERSON      CLOUDY    72  54  53 N7        30.06F
SALT POINT       N/A     75  53  46 VRB3      30.03S
NEW IBERIA     CLOUDY    73  51  46 N7        30.05S
CHENAULT AIRPK MOSUNNY   72  54  53 N7        30.07S

$$

LAZ027-028-232300-
CENTRAL LOUISIANA

CITY           SKY/WX    TMP DP  RH WIND       PRES   REMARKS
FORT POLK      CLOUDY    68  52  56 N6        30.09R
ALEXANDRIA INT PTSUNNY   66  48  52 N9        30.09R
ALEXANDRIA     PTSUNNY   63  51  65 N3        30.09S

$$

LAZ001-002-232300-
NORTHWEST LOUISIANA

CITY           SKY/WX    TMP DP  RH WIND       PRES   REMARKS
SHREVEPORT     MOSUNNY   71  46  40 VRB3      30.10F
BARKSDALE AFB  SUNNY     71  44  38 NE5       30.11S
DTN SHREVEPORT SUNNY     70  47  43 NE3       30.11S

$$

LAZ014-016-232300-
NORTHEAST LOUISIANA

CITY           SKY/WX    TMP DP  RH WIND       PRES   REMARKS
MONROE         CLOUDY    63  51  65 N9        30.13R
TALLULAH       CLOUDY    65  48  54 N8        30.08F

$$




USA.gov is the U.S. government's official web portal to all federal, state and local government web resources and services.